Погода Узловая

Погода Узловая : погода сейчас, прогноз погоды и архив. Всё, что Вы хотите узнать о погоде Узловая!

Поиск расширенной информации на нашем сайте:

Другие новости

Новости СМИ2

Главная страница сайта

Новости сайта

03.07.2017

Напоминаем, что на нашем специализированном сайте Метеоцентр.Азия вы можете получить высокодетализированные автоматические прогнозы погоды по пунктам России, СНГ и мира в авиационном формате (включающие направление и скорость ветра, видимость, явления погоды, количество и форму облачности, нижнюю и верхнюю границу облачности).

Рекомендуем: кровмаркет отзывы

Погода Узловая - сегодня

Время (UTC), дата Ветер
(°,м/с) 
Видим.   Явления Облачность Т
(°С)
Тd
(°С)
f(%) Тe
(°С)
Pmin
(гПа)
dP
(гПа)
Po
(мм)
O2
(г/м3)
Тmin Tmax R s Состояние
почвы
03 15.08.17 050 (СВ) 5000 м  дымка  8/3 600 м кучево-дожд., средняя, верхняя 
[Cb cap|Ac trans|Ci sp]
+18.6 +17.6 94 +33  1019.3  0.9  744  277  +18.1         
06 15.08.17 110 (В) 15000 м    8/3 300 м средняя, верхняя 
[St|Ac trans|Ci fib]
+20 +18.1 89 +35  1021  1.7  746  276  +18.1         
09 15.08.17 360 (С) 25000 м    8/8 600 м 
[Cu med, cong]
+22.1 +18.8 82 +38  1021.5  0.8  746  274           
12 15.08.17 020 (С) 26000 м    8/8 300 м кучево-дожд. 
[Cb cap]
+23.8 +19.9 79 +42  1020.8  -0.6  746  272           
15 15.08.17 020 (С) 30000 м    3/3 1000 м средняя 
[Cu hum|Ac trans]
+23.4 +15.2 60 +33  1022.6  1.6  747  274           
21 15.08.17 050 (СВ) 14000 м    4/4 600 м 
[Sc]
+16.2 +14.1 87 +25  1024.7  748  282           
00 16.08.17 020 (С) 17000 м    9/9 1000 м 
[Sc]
+15 +13 88 +21  1025.5  0.6  749  283           
03 16.08.17 020 (С) 14000 м    3/3 600 м 
[Sc]
+13.8 +11.9 88 +19  1026  0.8  749  285  +13         
06 16.08.17 050 (СВ) 25000 м    ясно 
+19.6 +16.2 81 +32  1025.9  0.5  749  278  +13         
09 16.08.17 020 (С) 28000 м    6/6 600 м кучево-дожд. 
[Cb cap]
+23.7 +17.3 67 +37  1025.3  -0.2  749  274           
12 16.08.17 050 (СВ) 30000 м    6/6 600 м кучево-дожд. 
[Cb cap]
+24.3 +18.8 71 +40  1025.1  -0.2  749  273           
15 16.08.17 070 (В) 28000 м    3/3 600 м кучево-дожд. 
[Cb cap]
+24.3 +17.6 66 +38  1024.3  -0.7  748  273           
18 16.08.17 тихо ()   14000 м    1/0 средняя 
[Ac trans]
+18.6 +16.3 86 +30  1026.9  750  279    +26.4       
21 16.08.17 090 (В) 8000 м  дымка  3/0 верхняя 
[Ci sp]
+16.8 +15.6 93 +28  1025.4  -1.6  749  281           
00 17.08.17 тихо ()   6000 м  дымка  8/0 средняя 
[Ac trans]
+15.1 +14.2 94 +22  1025.6  749  283           
03 17.08.17 090 (В) 7000 м  дымка  3/0 средняя 
[Ac lent]
+14 +12.9 93 +20  1025.9  0.2  749  284  +13.9         
06 17.08.17 090 (В) 20000 м    ясно 
+20.1 +19.4 96 +37  1025.5  0.1  749  276  +14         
09 17.08.17 090 (В) 24000 м    6/6 600 м 
[Cu med, cong]
+24.3 +18.8 71 +40  1025.5  0.4  749  273           
12 17.08.17 070 (В) 26000 м    8/8 600 м 
[Cu med, cong]
+26.9 +19.3 63 +44  1024.9  -0.3  749  270           
15 17.08.17 070 (В) 29000 м    3/1 1000 м верхняя 
[Cu hum|Ci sp]
+25.5 +18.8 66 +42  1024.1  -0.9  748  271           
18 17.08.17 тихо ()   15000 м    3/0 средняя 
[Ac trans]
+19.9 +17.5 86 +33  1024.2  -0.4  748  277    +28       
21 17.08.17 090 (В) 17000 м    3/0 верхняя 
[Ci fib]
+18.7 +15.5 82 +30  1024.5  0.2  748  279           
00 18.08.17 тихо ()   12000 м    ясно 
+15.5 +13.5 88 +22  1025.3  0.4  748  283           
03 18.08.17 090 (В) 13000 м    6/3 600 м средняя, верхняя 
[Sc|Ac trans|Ci fib]
+14.9 +13.1 89 +22  1025.4  0.1  749  283  +14.7         
06 18.08.17 110 (В) 25000 м    6/0 верхняя 
[Ci sp]
+21.9 +16.3 71 +33  1024.6  -0.2  748  276  +14.7         
Время (UTC), дата Ветер
(°,м/с) 
Видим.   Явления Облачность Т
(°С)
Тd
(°С)
f(%) Тe
(°С)
Pmin
(гПа)
dP
(гПа)
Po
(мм)
O2
(г/м3)
Тmin Tmax R s Состояние
почвы

Для получения пояснительной информации подведите курсор к названию столбца.

ПОГОДА Узловая - архив

Всё, что Вы хотите узнать о погоде Узловая - удобно и подробно!

Выберите нужную дату (начиная с 1 января 2015* года) и нажмите кнопку "Найти".
Будут отображены архивные сводки погоды по пункту Узловая, начиная с указанной даты.


Отображать данные в формате CSV (для использования в таблицах Excel)


Внимание! Наш архив погоды предназначен исключительно для личного некоммерческого использования в познавательных целях. Если Вам необходимы официальные справки о состоянии погоды (для производственных, юридических, коммерческих и т.п. целей), обращайтесь в органы Росгидромета.

*Примечание: данная дата относится к архиву по метеостанциям СССР (Россия, СНГ, Балтия).
Архив по метеостанциям Зарубежной Европы и Азии (кроме Китая) хранится 10 дней, по другим регионам земного шара (Китай, Африка, Америка, Австралия, Океания) - 1 день.

Узловая - район местоположения метеостанции


Название, широта, долгота, высота метеостанции:
Узловая 54°ш. 38.1°д. 231 м над ур. моря [Российская Федерация]

Дополнительная информация

В oтличие oт бoльшинства пoгoдных сайтoв мы публикуем пoдрoбную метеoинфoрмацию в детальнoм прoфессиoнальнoм фoрмате.

Характеристики температуры и влажнoсти вoздуха измеряются на высoте 2 м в тени вдали oт зданий и деревьев.
Скoрoсть ветра измеряется на высoте 10 м (на урoвне рoста челoвека скoрoсть ветра ниже в 1.5-2 раза). Если метеoстанция нахoдится в гoрoде или в лесу, тo скoрoсть ветра занижена на 2-4 м/с пo сравнению с oткрытым местoм. Скoрoсть ветра над акватoриями крупных рек и oзёр, а также на вершинах хoлмoв на 2-5 м/с выше, чем в oбычных услoвиях.
Атмoсфернoе давление в разных тoчках местнoсти мoжет значительнo oтличаться oт давления на метеoстанции, в зависимoсти oт услoвий рельефа (при пoдъёме на 10 м давление пoнижается примернo на 1 мм рт.ст.).